Location: Kalberh�ni
(46.4610°N, 7.2453°E)
Time: 14:09:27
(UTC+00:00)

ISS - Visible Passes

Search period start: 01 October 2022 00:00
Search period end: 11 October 2022 00:00
Orbit: 414 x 417 km, 51.6° (Epoch: 01 October)

Date Brightness Start Highest point End Pass type
(mag) Time Alt. Az. Time Alt. Az. Time Alt. Az.
01 Oct -3.7 18:31:11 10° WNW 18:34:32 71° SSW 18:35:58 31° SE visible
02 Oct -3.8 17:42:21 10° WNW 17:45:43 77° NNE 17:49:04 10° ESE visible
02 Oct -1.6 19:19:37 10° W 19:22:07 20° SW 19:22:08 20° SW visible
03 Oct -2.2 18:30:25 10° WNW 18:33:26 31° SW 18:35:29 16° SSE visible
04 Oct -2.9 17:41:23 10° WNW 17:44:39 49° SW 17:47:53 10° SE visible
05 Oct -0.9 18:30:18 10° WSW 18:32:01 13° SW 18:33:44 10° SSW visible
06 Oct -1.3 17:40:39 10° W 17:43:17 21° SW 17:45:54 10° S visible
